sat.trackr.live / text

‹ back to catalog

STARLINK-35692

NORAD 66513 · 2025-263AE

PAYLOAD ACTIVE UNKNOWN

§ Identity

Operator
Country
US
Launch date
2025-11-15
Launch site
AFETR
Launch vehicle
Mass (kg)
RCS (m²)

Purposes: comms

External: N2YO · Heavens-Above · Gunter

§ Orbital elements

Epoch: 2026-09-20T12:27:01.979424Z

Period
94.27 min
Inclination
43.0077°
Eccentricity
0.0001905
Mean motion
15.27593265 rev/d
Perigee alt
481.7 km
Apogee alt
484.3 km
Semi-major
6,861.1 km
B*
3.9858e-4
RAAN
330.5628°
Arg perigee
281.6913°
Mean anomaly
78.3725°
Rev number
4,869

§ Raw data

STARLINK-356921 66513U 25263AE  26263.51877291  .00010726  00000+0  39858-3 0  99992 66513  43.0077 330.5628 0001905 281.6913  78.3725 15.27593265 48690

JSON: /api/v1/satellites/66513 · /tle

For live sub-satellite position, see the globe view (requires WebGL).

§ Visibility from observer

Set your observer location to see the next 7 days of passes ≥ 10°. The values pass through the URL so the page stays shareable.

No JS? Fill the form by hand. The geolocation button needs JavaScript.